Find Gorizont

NORAD ID: 19765 Int'l Des: 1989-004 Owner: MSVYAZ Country: SU operational
HEOCIRCULAR

Current View

Loading 3D Globe...

About Gorizont

Description loading...

Upcoming Passes

Passes for default location (London). Set your location on the main map for personalized predictions.

Altitude History

Loading altitude history...

Two-Line Element Set

1 19765U 89004A 26146.27181605 -.00000267 00000-0 00000-0 0 9994
2 19765 12.2907 333.4759 0019179 169.2304 169.3475 0.99068820135351
Epoch: May 26, 2026 • Age: 11 hours

Current Status

Altitude 36051.7 km
Velocity 3.07 km/s
Sub-Earth Point 6.85°N, 31.14°W
Launch Date Jan 26, 1989
Age 37.3 years
Type other

Technical Details

Classification Payload
Mass 2120.00 kg
Dry Mass 2000.00 kg
Total Mass 2120.00 kg
Length 5.50 m
Diameter 3.30 m
Span 9.50 m
Shape Cyl + 2 Pan
Manufacturer NPOPM
Bus Type Gorizont
Phase Status In Orbit
Owner/State MSVYAZ/SU

Most Searched